This is the latest recevied weather packets stored in our database for station/object HP1COO-13. If no packets are shown the sender has not sent any weather packets the latest 10 day(s).
| Time | Temp. | Humidity | Pressure | Rain* | Wind** | Luminosity | Snow |
|---|---|---|---|---|---|---|---|
| 1777513647 | 25.56° C | 94% | 1006.8 hPa | 0 mm | - | - | - |
| 1777513014 | 26.11° C | 94% | 1006.4 hPa | 0 mm | - | - | - |
| 1777512381 | 25.56° C | 94% | 1006.5 hPa | 0 mm | - | - | - |
| 1777511748 | 25.56° C | 94% | 1006.2 hPa | 0 mm | - | - | - |
| 1777511115 | 25.56° C | 95% | 1006.1 hPa | 0 mm | - | - | - |
| 1777510482 | 25.56° C | 95% | 1006.1 hPa | 0 mm | - | - | - |
| 1777509849 | 25.56° C | 96% | 1005.9 hPa | 0 mm | - | - | - |
| 1777509216 | 25.56° C | 97% | 1005.6 hPa | 0.25 mm | - | - | - |
| 1777508583 | 25.56° C | 97% | 1005.5 hPa | 0.25 mm | - | - | - |
| 1777507950 | 25.56° C | 96% | 1005.4 hPa | 1.78 mm | - | - | - |
| 1777507317 | 25.56° C | 96% | 1005.4 hPa | 5.84 mm | - | - | - |
| 1777506715 | 25.56° C | 96% | 1004.9 hPa | 6.1 mm | - | - | - |
| 1777506684 | 25.56° C | 96% | 1004.9 hPa | 6.1 mm | - | - | - |
| 1777506051 | 25.56° C | 97% | 1005.1 hPa | 6.1 mm | - | - | - |
| 1777505418 | 25.56° C | 98% | 1004.9 hPa | 7.87 mm | - | - | - |
| 1777504785 | 25.56° C | 99% | 1004.7 hPa | 10.67 mm | - | - | - |
| 1777504152 | 25.56° C | 99% | 1004.6 hPa | 12.19 mm | - | - | - |
| 1777503519 | 25.56° C | 99% | 1004.6 hPa | 28.96 mm | - | - | - |
| 1777502886 | 25.56° C | 99% | 1004.4 hPa | 54.61 mm | - | - | - |
| 1777502253 | 25.56° C | 99% | 1004.2 hPa | 56.39 mm | - | - | - |
| 1777501620 | 25.56° C | 99% | 1004.5 hPa | 59.44 mm | - | - | - |
| 1777500987 | 25.56° C | 99% | 1004.5 hPa | 58.42 mm | - | - | - |
| 1777500354 | 25.56° C | 99% | 1004.5 hPa | 54.86 mm | - | - | - |
| 1777499721 | 25.56° C | 98% | 1004.5 hPa | 43.94 mm | - | - | - |
| 1777499088 | 25.56° C | 98% | 1004.2 hPa | 54.36 mm | - | - | - |
* Rain latest hour (hover to see other rain measurements)
** Current wind speed in m/s (hover to see current wind gust speed)